M0ZPG Weather Reports


time (UTC)temp
C
wind
direction
speed
KPH
gust
KPH
rain 1hr
cm
rain 24hr
cm
rain mn
cm
humidity
%
barometer
mb
20260505050905 11 86 0.0 1.6 0.00 0.00 0.00 87 1012.4
20260505050216 11 86 0.0 3.2 0.00 0.00 0.00 87 1012.3
20260505040903 11 75 0.0 3.2 0.00 0.00 0.00 89 1012.4
20260505040216 11 75 1.6 4.8 0.00 0.00 0.00 88 1012.4
20260505035405 11 78 0.0 3.2 0.00 0.00 0.00 89 1012.4
20260505034505 11 78 0.0 6.4 0.00 0.00 0.00 88 1012.4
20260505033605 11 80 1.6 6.4 0.00 0.00 0.00 88 1012.5
20260505032703 11 88 1.6 6.4 0.00 0.00 0.00 88 1012.4
20260505031803 11 94 1.6 6.4 0.00 0.00 0.00 88 1012.4
20260505030903 11 99 0.0 4.8 0.00 0.00 0.00 89 1012.4
20260505030005 11 99 0.0 3.2 0.00 0.00 0.00 89 1012.5
20260505025404 11 99 0.0 3.2 0.00 0.00 0.00 89 1012.5
20260505024505 11 99 0.0 3.2 0.00 0.00 0.00 89 1012.5
20260505023605 11 99 0.0 3.2 0.00 0.00 0.00 89 1012.6
20260505022705 11 100 1.6 6.4 0.00 0.00 0.00 88 1012.5
20260505021805 11 95 1.6 6.4 0.00 0.00 0.00 88 1012.6
20260505020905 11 92 1.6 9.7 0.00 0.00 0.00 88 1012.6
20260505020006 11 85 1.6 9.7 0.00 0.00 0.00 88 1012.6
20260505015404 11 84 1.6 6.4 0.00 0.00 0.00 88 1012.5
20260505014503 11 85 3.2 11.3 0.00 0.00 0.00 88 1012.7
20260505013605 11 84 1.6 9.7 0.00 0.00 0.00 88 1012.9
20260505012704 11 95 1.6 9.7 0.00 0.00 0.00 87 1012.8
20260505011804 11 80 1.6 6.4 0.00 0.00 0.00 87 1013.0
20260505011116 11 91 3.2 9.7 0.00 0.00 0.00 87 1013.1
20260505010003 12 86 3.2 11.3 0.00 0.00 0.00 87 1013.2
20260505005403 12 91 3.2 9.7 0.00 0.00 0.00 87 1013.2
20260505004504 12 83 3.2 14.5 0.00 0.00 0.00 87 1013.2
20260505003603 12 91 3.2 9.7 0.00 0.00 0.00 87 1013.2
20260505002705 12 94 3.2 11.3 0.00 0.00 0.00 87 1013.2
20260505001805 12 92 1.6 4.8 0.00 0.00 0.00 87 1013.2
20260505000905 12 90 1.6 6.4 0.00 0.00 0.00 86 1013.3
20260505000003 12 84 3.2 9.7 0.00 0.00 0.00 86 1013.4
20260504235405 12 88 3.2 8.0 0.00 0.00 0.00 85 1013.3
20260504234503 13 69 1.6 6.4 0.00 0.00 0.00 84 1013.3
20260504233603 13 15 1.6 8.0 0.00 0.00 0.00 81 1013.2
20260504232703 13 32 1.6 8.0 0.00 0.00 0.00 81 1013.4
20260504232015 13 43 1.6 6.4 0.00 0.00 0.00 81 1013.4
20260504230904 13 46 1.6 12.9 0.00 0.00 0.00 81 1013.5
20260504230005 13 58 1.6 11.3 0.00 0.00 0.00 80 1013.4
20260504225403 13 35 1.6 14.5 0.00 0.00 0.00 80 1013.5
20260504224505 13 34 1.6 8.0 0.00 0.00 0.00 80 1013.5
20260504223816 13 16 1.6 8.0 0.00 0.00 0.00 80 1013.5
20260504222918 13 11 1.6 8.0 0.00 0.00 0.00 80 1013.6
20260504221804 13 11 1.6 8.0 0.00 0.00 0.00 81 1013.6
20260504221118 13 37 1.6 8.0 0.00 0.00 0.00 81 1013.6
20260504220215 13 30 1.6 9.7 0.00 0.00 0.00 81 1013.6
20260504215405 13 36 1.6 8.0 0.00 0.00 0.00 83 1013.6
20260504214505 13 73 0.0 3.2 0.00 0.00 0.00 84 1013.7
20260504213603 13 73 0.0 3.2 0.00 0.00 0.00 84 1013.7
20260504212705 13 73 0.0 3.2 0.00 0.00 0.00 84 1013.6
20260504211805 13 74 0.0 3.2 0.00 0.00 0.00 84 1013.6
20260504210905 13 73 1.6 6.4 0.00 0.00 0.00 83 1013.6
20260504210004 13 58 1.6 8.0 0.00 0.00 0.00 83 1013.6
20260504205405 13 70 1.6 8.0 0.00 0.00 0.00 82 1013.6
20260504204505 14 79 1.6 6.4 0.00 0.00 0.00 82 1013.6
20260504203605 14 78 1.6 4.8 0.00 0.00 0.00 81 1013.6
20260504202705 14 78 1.6 4.8 0.00 0.00 0.00 80 1013.7
20260504202017 14 78 0.0 4.8 0.00 0.00 0.00 80 1013.7
20260504201114 14 79 1.6 3.2 0.00 0.00 0.00 80 1013.6
20260504200005 14 76 1.6 6.4 0.00 0.00 0.00 80 1013.6
20260504195618 14 74 1.6 4.8 0.00 0.00 0.00 80 1013.6
20260504194505 14 76 1.6 4.8 0.00 0.00 0.00 80 1013.5
20260504193813 14 68 1.6 4.8 0.00 0.00 0.00 79 1013.4
20260504192705 14 61 1.6 4.8 0.00 0.00 0.00 79 1013.3
20260504191806 14 47 1.6 6.4 0.00 0.00 0.00 79 1013.2
20260504190905 14 76 1.6 6.4 0.00 0.00 0.00 79 1013.2
20260504190005 14 60 1.6 6.4 0.00 0.00 0.00 79 1013.2
20260504185618 14 48 1.6 6.4 0.00 0.00 0.00 79 1013.2
20260504184716 15 32 1.6 6.4 0.00 0.00 0.00 78 1013.1
20260504183603 15 28 1.6 6.4 0.00 0.00 0.00 78 1013.1
20260504182916 15 355 1.6 9.7 0.00 0.00 0.00 77 1013.2
20260504181804 15 70 1.6 4.8 0.00 0.00 0.00 77 1013.2
20260504180903 15 50 1.6 6.4 0.00 0.00 0.00 76 1013.1
20260504180005 15 38 1.6 4.8 0.00 0.00 0.00 77 1013.1
20260504175614 15 28 1.6 6.4 0.00 0.00 0.00 76 1013.0
20260504174504 15 60 1.6 16.1 0.00 0.00 0.00 76 1012.9
20260504173605 15 54 3.2 12.9 0.00 0.00 0.00 76 1012.9
20260504172703 15 21 3.2 12.9 0.00 0.00 0.00 76 1012.8
20260504171804 15 50 3.2 11.3 0.00 0.00 0.00 76 1012.8
20260504171116 15 34 3.2 11.3 0.00 0.00 0.00 76 1012.8
20260504160214 16 13 4.8 12.9 0.00 0.00 0.00 75 1012.8
20260504151117 16 50 3.2 8.0 0.00 0.00 0.00 75 1013.2
20260504140905 15 49 1.6 4.8 0.00 0.00 0.00 77 1013.4
20260504081803 12 42 1.6 8.0 0.00 0.00 0.00 86 1013.0
20260504081116 12 46 1.6 6.4 0.00 0.00 0.00 87 1013.0